PTMAP EDXW-EDDG

Flight info

Callsign PTMAP
Flight time N/A
Altitude 20000
Route OLDIP1A OLDIP DCT ABFAD DCT OPWOT/N0273F230 Z612 WSN Z88 HABFU Y348 MAWEQ Z718 OSNAD
Aircraft E110/L-SDFGHRY/S

Departure

Time 2026-04-16 08:48
Airport Westerland Sylt Airport (EDXW)

Arrival

Time N/A
Airport Münster Osnabrück Airport (EDDG)
Time Latitude Longitude Altitude Speed Heading
2026-04-16 08:45 54.92098 8.33871 45 ft 0 kts 355°
2026-04-16 08:46 54.92101 8.33868 45 ft 1 kts 308°
2026-04-16 08:46 54.92093 8.33858 45 ft 5 kts 187°
2026-04-16 08:46 54.92045 8.33810 42 ft 11 kts 260°
2026-04-16 08:46 54.91979 8.33698 38 ft 13 kts 237°
2026-04-16 08:47 54.91958 8.33551 33 ft 13 kts 266°
2026-04-16 08:47 54.91940 8.33381 32 ft 15 kts 232°
2026-04-16 08:47 54.91825 8.33426 32 ft 41 kts 145°
2026-04-16 08:47 54.91369 8.33968 71 ft 103 kts 147°
2026-04-16 08:48 54.90794 8.34786 420 ft 109 kts 135°
2026-04-16 08:48 54.90211 8.35678 803 ft 114 kts 152°
2026-04-16 08:48 54.89505 8.36376 1190 ft 119 kts 146°
2026-04-16 08:48 54.88836 8.37177 1566 ft 115 kts 147°
2026-04-16 08:49 54.88208 8.37929 1946 ft 105 kts 145°
2026-04-16 08:49 54.87627 8.38644 2325 ft 101 kts 147°
2026-04-16 08:49 54.87062 8.39332 2709 ft 97 kts 144°
2026-04-16 08:49 54.86529 8.39998 3083 ft 92 kts 146°
2026-04-16 08:50 54.86023 8.40634 3454 ft 88 kts 144°
2026-04-16 08:50 54.85531 8.41230 3786 ft 86 kts 145°
2026-04-16 08:50 54.85023 8.41853 3953 ft 90 kts 147°
2026-04-16 08:50 54.84523 8.42475 4209 ft 88 kts 144°
2026-04-16 08:51 54.84006 8.43097 4412 ft 89 kts 145°
2026-04-16 08:51 54.83504 8.43729 4610 ft 92 kts 147°
2026-04-16 08:51 54.82992 8.44358 4847 ft 89 kts 144°
2026-04-16 08:51 54.82473 8.44988 5035 ft 91 kts 146°
2026-04-16 08:52 54.81967 8.45626 5257 ft 91 kts 146°
2026-04-16 08:52 54.81446 8.46259 5474 ft 90 kts 144°
2026-04-16 08:52 54.80928 8.46895 5667 ft 92 kts 146°
2026-04-16 08:52 54.80413 8.47539 5889 ft 91 kts 146°
2026-04-16 08:53 54.79873 8.48192 6015 ft 101 kts 145°
2026-04-16 08:53 54.79246 8.48951 6019 ft 118 kts 146°
2026-04-16 08:53 54.78550 8.49805 6022 ft 129 kts 145°
2026-04-16 08:53 54.77794 8.50735 6022 ft 137 kts 145°
2026-04-16 08:54 54.77016 8.51712 6063 ft 139 kts 145°
2026-04-16 08:54 54.76206 8.52729 6105 ft 156 kts 144°
2026-04-16 08:54 54.75241 8.53962 6177 ft 186 kts 144°
2026-04-16 08:54 54.74148 8.55343 6237 ft 201 kts 144°
2026-04-16 08:55 54.72991 8.56787 6295 ft 208 kts 144°
2026-04-16 08:55 54.71804 8.58259 6346 ft 212 kts 145°
2026-04-16 08:55 54.70594 8.59752 6386 ft 214 kts 145°
2026-04-16 08:55 54.69370 8.61249 6420 ft 215 kts 145°
2026-04-16 08:56 54.68142 8.62743 6445 ft 216 kts 145°
2026-04-16 08:56 54.66907 8.64235 6475 ft 217 kts 146°
2026-04-16 08:56 54.65665 8.65724 6474 ft 218 kts 146°
2026-04-16 08:56 54.64417 8.67211 6494 ft 218 kts 146°
2026-04-16 08:57 54.63188 8.68666 6578 ft 215 kts 146°
2026-04-16 08:57 54.61963 8.70109 6707 ft 212 kts 146°
2026-04-16 08:57 54.60743 8.71537 6846 ft 211 kts 146°
2026-04-16 08:57 54.59526 8.72956 6978 ft 211 kts 147°
2026-04-16 08:58 54.58310 8.74365 7108 ft 211 kts 147°
2026-04-16 08:58 54.57091 8.75769 7237 ft 211 kts 147°
2026-04-16 08:58 54.55863 8.77165 7366 ft 211 kts 147°
2026-04-16 08:58 54.54676 8.78645 7491 ft 209 kts 139°
2026-04-16 08:59 54.53600 8.80342 7618 ft 211 kts 138°
2026-04-16 08:59 54.52513 8.82052 7744 ft 211 kts 138°
2026-04-16 08:59 54.51423 8.83760 7872 ft 212 kts 138°
2026-04-16 08:59 54.50333 8.85476 7999 ft 213 kts 138°
2026-04-16 09:00 54.49254 8.87171 8123 ft 213 kts 138°
2026-04-16 09:00 54.48245 8.89015 8249 ft 212 kts 129°
2026-04-16 09:00 54.47316 8.90990 8370 ft 213 kts 129°
2026-04-16 09:00 54.46379 8.92966 8499 ft 214 kts 129°
2026-04-16 09:01 54.44555 8.97038 8636 ft 218 kts 124°
2026-04-16 09:01 54.44097 8.99509 8632 ft 222 kts 90°
2026-04-16 09:01 54.44278 9.02124 8633 ft 222 kts 82°
2026-04-16 09:02 54.44703 9.04648 8629 ft 222 kts 58°
2026-04-16 09:02 54.45844 9.06380 8625 ft 222 kts 24°
2026-04-16 09:02 54.47340 9.06924 8627 ft 220 kts
2026-04-16 09:02 54.48870 9.07184 8632 ft 221 kts
2026-04-16 09:03 54.50402 9.07469 8633 ft 222 kts
2026-04-16 09:03 54.51937 9.07773 8635 ft 222 kts
2026-04-16 09:03 54.53470 9.08089 8637 ft 222 kts
2026-04-16 09:03 54.54985 9.08406 8637 ft 222 kts
2026-04-16 09:04 54.56528 9.08645 8637 ft 222 kts
2026-04-16 09:04 54.58059 9.08781 8767 ft 214 kts 354°
2026-04-16 09:04 54.59409 9.07698 8500 ft 227 kts 313°
2026-04-16 09:04 54.59910 9.05103 7807 ft 244 kts 261°
2026-04-16 09:05 54.59390 9.02290 7074 ft 249 kts 251°
2026-04-16 09:05 54.58870 8.99525 7045 ft 232 kts 253°
2026-04-16 09:05 54.58412 8.96927 7075 ft 223 kts 253°
2026-04-16 09:05 54.57978 8.94394 7170 ft 217 kts 254°
2026-04-16 09:06 54.57562 8.91927 7292 ft 213 kts 254°
2026-04-16 09:06 54.57155 8.89487 7412 ft 211 kts 254°
2026-04-16 09:06 54.56758 8.87087 7538 ft 210 kts 254°
2026-04-16 09:06 54.56361 8.84670 7662 ft 210 kts 255°
2026-04-16 09:07 54.55968 8.82254 7782 ft 210 kts 255°
2026-04-16 09:07 54.55578 8.79829 7911 ft 210 kts 255°
2026-04-16 09:07 54.55192 8.77408 8033 ft 210 kts 255°
2026-04-16 09:07 54.54807 8.74974 8158 ft 210 kts 255°
2026-04-16 09:08 54.54426 8.72541 8283 ft 210 kts 255°
2026-04-16 09:08 54.54048 8.70109 8408 ft 210 kts 255°
2026-04-16 09:08 54.53673 8.67668 8533 ft 211 kts 255°
2026-04-16 09:08 54.53316 8.65221 8656 ft 209 kts 261°
2026-04-16 09:09 54.53535 8.62787 8789 ft 210 kts 298°
2026-04-16 09:09 54.54574 8.61073 8920 ft 211 kts 334°
2026-04-16 09:09 54.56011 8.60672 9053 ft 212 kts
2026-04-16 09:09 54.57492 8.60784 9180 ft 213 kts
2026-04-16 09:10 54.58976 8.60888 9306 ft 214 kts
2026-04-16 09:10 54.59978 8.60956 9391 ft 214 kts